Location: Unspecified
(0.0000°N, 0.0000°E)
Time: 12:41:09
(UTC+00:00)

Vanguard 2 - Pass Details

Date: 16 December 2018
Orbit: 553 x 2938 km, 32.9° (Epoch: 15 July)

Event Time Altitude Azimuth Distance (km) Brightness Sun altitude
Rises 13:18:29 0° 219° (SW) 4,870 12.1 59.2°
Reaches altitude 10° 13:23:12 10° 205° (SSW) 3,397 11.5 58.4°
Maximum altitude 13:29:01 21° 158° (SSE) 2,080 10.3 57.5°
Drops below altitude 10° 13:33:15 10° 109° (ESE) 2,379 10.0 56.7°
Sets 13:35:52 0° 92° (E) 3,082 10.4 56.3°
